| time (UTC) | temp F | wind direction | speed knots | gust knots | rain 1hr in | rain 24hr in | rain mn in | humidity % | barometer mb |
| 20260508075059 | 47 | 71 | 0.0 | 1.7 | 0.00 | 0.02 | 0.02 | 70 | 975.6 |
| 20260508074600 | 48 | 357 | 0.0 | 1.7 | 0.01 | 0.02 | 0.02 | 69 | 976.0 |
| 20260508074059 | 48 | 55 | 0.0 | 0.9 | 0.01 | 0.02 | 0.02 | 69 | 976.0 |
| 20260508073558 | 48 | 297 | 0.9 | 2.6 | 0.01 | 0.02 | 0.02 | 69 | 976.0 |
| 20260508073058 | 47 | 326 | 2.6 | 3.5 | 0.01 | 0.02 | 0.02 | 69 | 975.6 |
| 20260508072558 | 47 | 329 | 0.0 | 3.5 | 0.01 | 0.02 | 0.02 | 69 | 975.6 |
| 20260508072058 | 47 | 124 | 0.0 | 2.6 | 0.01 | 0.02 | 0.02 | 71 | 975.6 |
| 20260508071057 | 47 | 304 | 0.0 | 1.7 | 0.01 | 0.02 | 0.02 | 72 | 976.0 |
| 20260508070057 | 46 | 218 | 0.0 | 5.2 | 0.01 | 0.02 | 0.02 | 75 | 976.3 |
| 20260508065556 | 46 | 242 | 0.0 | 1.7 | 0.02 | 0.02 | 0.02 | 79 | 976.3 |
| 20260508065055 | 46 | 236 | 0.0 | 1.7 | 0.02 | 0.02 | 0.02 | 79 | 976.3 |
| 20260508064556 | 46 | 238 | 0.0 | 0.9 | 0.01 | 0.01 | 0.01 | 82 | 976.0 |
| 20260508064055 | 46 | 129 | 0.0 | 0.9 | 0.01 | 0.01 | 0.01 | 82 | 976.0 |
| 20260508063555 | 46 | 304 | 0.0 | 0.9 | 0.01 | 0.01 | 0.01 | 83 | 976.0 |
| 20260508063055 | 46 | 315 | 0.0 | 0.9 | 0.01 | 0.01 | 0.01 | 81 | 976.0 |
| 20260508062555 | 46 | 69 | 0.0 | 0.9 | 0.01 | 0.01 | 0.01 | 82 | 976.3 |
| 20260508062054 | 46 | 242 | 0.0 | 0.0 | 0.01 | 0.01 | 0.01 | 81 | 976.0 |
| 20260508061557 | 46 | 212 | 0.0 | 0.0 | 0.01 | 0.01 | 0.01 | 80 | 976.0 |
| 20260508061055 | 46 | 44 | 0.0 | 0.0 | 0.01 | 0.01 | 0.01 | 78 | 976.0 |
| 20260508060553 | 46 | 44 | 0.0 | 0.0 | 0.01 | 0.01 | 0.01 | 77 | 976.0 |
| 20260508060053 | 46 | 44 | 0.0 | 0.0 | 0.01 | 0.01 | 0.01 | 77 | 976.0 |
| 20260508055553 | 46 | 186 | 0.0 | 0.9 | 0.00 | 0.00 | 0.00 | 75 | 976.0 |
| 20260508055053 | 46 | 186 | 0.0 | 0.9 | 0.00 | 0.00 | 0.00 | 75 | 976.0 |
| 20260508054553 | 47 | 61 | 0.0 | 0.9 | 0.00 | 0.00 | 0.00 | 72 | 976.0 |
| 20260508054052 | 47 | 37 | 0.0 | 0.0 | 0.00 | 0.00 | 0.00 | 74 | 976.0 |
| 20260508053552 | 47 | 29 | 0.0 | 0.9 | 0.00 | 0.00 | 0.00 | 71 | 976.3 |
| 20260508053052 | 47 | 117 | 0.0 | 0.9 | 0.00 | 0.00 | 0.00 | 72 | 976.3 |
| 20260508052551 | 47 | 242 | 0.0 | 0.0 | 0.00 | 0.00 | 0.00 | 71 | 976.3 |
| 20260508052052 | 47 | 242 | 0.0 | 0.9 | 0.00 | 0.00 | 0.00 | 70 | 976.3 |
| 20260508051551 | 47 | 38 | 0.0 | 0.9 | 0.00 | 0.00 | 0.00 | 73 | 976.0 |
| 20260508051051 | 47 | 28 | 0.0 | 0.9 | 0.00 | 0.00 | 0.00 | 71 | 976.3 |
| 20260508050551 | 47 | 63 | 0.0 | 0.9 | 0.00 | 0.00 | 0.00 | 68 | 976.0 |
| 20260508050050 | 47 | 242 | 0.0 | 0.0 | 0.00 | 0.00 | 0.00 | 67 | 976.3 |
| 20260508045550 | 47 | 62 | 0.0 | 0.9 | 0.00 | 0.00 | 0.00 | 67 | 976.3 |
| 20260508045049 | 48 | 37 | 0.0 | 0.9 | 0.00 | 0.00 | 0.00 | 65 | 976.3 |
| 20260508044549 | 48 | 37 | 0.0 | 0.0 | 0.00 | 0.00 | 0.00 | 65 | 976.3 |
| 20260508044049 | 48 | 124 | 0.0 | 0.9 | 0.00 | 0.00 | 0.00 | 64 | 976.3 |
| 20260508043048 | 48 | 102 | 0.0 | 1.7 | 0.00 | 0.00 | 0.00 | 63 | 976.7 |
| 20260508042048 | 48 | 37 | 0.0 | 0.9 | 0.00 | 0.00 | 0.00 | 61 | 976.3 |
| 20260508041551 | 48 | 117 | 0.0 | 0.9 | 0.00 | 0.00 | 0.00 | 60 | 976.3 |
| 20260508041047 | 48 | 304 | 0.0 | 1.7 | 0.00 | 0.00 | 0.00 | 60 | 976.3 |
| 20260508040547 | 48 | 129 | 0.0 | 1.7 | 0.00 | 0.00 | 0.00 | 61 | 976.3 |
| 20260508040047 | 48 | 296 | 0.0 | 1.7 | 0.00 | 0.00 | 0.00 | 61 | 976.7 |
| 20260508035547 | 48 | 336 | 0.0 | 1.7 | 0.00 | 0.00 | 0.00 | 62 | 976.7 |
| 20260508035046 | 48 | 297 | 0.0 | 0.9 | 0.00 | 0.00 | 0.00 | 63 | 976.7 |
| 20260508034546 | 47 | 49 | 0.0 | 0.9 | 0.00 | 0.00 | 0.00 | 64 | 976.3 |
| 20260508033546 | 47 | 322 | 0.0 | 1.7 | 0.00 | 0.00 | 0.00 | 68 | 976.3 |
| 20260508033045 | 47 | 113 | 0.0 | 1.7 | 0.00 | 0.00 | 0.00 | 69 | 976.0 |
| 20260508032545 | 47 | 60 | 1.7 | 1.7 | 0.00 | 0.00 | 0.00 | 68 | 976.3 |
| 20260508032045 | 46 | 316 | 0.0 | 1.7 | 0.00 | 0.00 | 0.00 | 68 | 976.3 |
| 20260508031545 | 46 | 135 | 0.0 | 1.7 | 0.00 | 0.00 | 0.00 | 68 | 976.7 |
| 20260508031044 | 46 | 322 | 0.9 | 1.7 | 0.00 | 0.00 | 0.00 | 69 | 976.3 |
| 20260508030544 | 46 | 50 | 0.0 | 0.0 | 0.00 | 0.00 | 0.00 | 69 | 976.3 |
| 20260508030044 | 46 | 50 | 0.0 | 0.0 | 0.00 | 0.00 | 0.00 | 71 | 976.3 |
| 20260508025543 | 46 | 62 | 0.0 | 0.9 | 0.00 | 0.00 | 0.00 | 65 | 976.3 |
| 20260508025044 | 46 | 76 | 0.0 | 0.9 | 0.00 | 0.00 | 0.00 | 65 | 976.3 |
| 20260508024543 | 46 | 207 | 0.0 | 0.9 | 0.00 | 0.00 | 0.00 | 66 | 976.3 |
| 20260508024043 | 46 | 233 | 0.0 | 0.9 | 0.00 | 0.00 | 0.00 | 66 | 976.3 |
| 20260508023042 | 46 | 217 | 0.0 | 0.9 | 0.00 | 0.00 | 0.00 | 65 | 976.3 |
| 20260508022542 | 46 | 269 | 0.0 | 0.9 | 0.00 | 0.00 | 0.00 | 65 | 976.3 |
| 20260508022045 | 46 | 50 | 0.0 | 0.9 | 0.00 | 0.00 | 0.00 | 65 | 976.3 |
| 20260508021541 | 46 | 322 | 0.0 | 0.0 | 0.00 | 0.00 | 0.00 | 66 | 976.0 |
| 20260508021041 | 46 | 322 | 0.0 | 0.0 | 0.00 | 0.00 | 0.00 | 64 | 976.3 |
| 20260508020041 | 46 | 37 | 0.0 | 0.0 | 0.00 | 0.00 | 0.00 | 64 | 976.3 |
| 20260508015540 | 46 | 37 | 0.0 | 0.0 | 0.00 | 0.00 | 0.00 | 62 | 976.0 |
| 20260508015040 | 46 | 135 | 0.0 | 0.0 | 0.00 | 0.00 | 0.00 | 62 | 976.0 |
| 20260508014540 | 47 | 135 | 0.0 | 0.9 | 0.00 | 0.00 | 0.00 | 60 | 976.0 |
| 20260508014039 | 47 | 135 | 0.0 | 0.9 | 0.00 | 0.00 | 0.00 | 61 | 976.0 |
| 20260508013539 | 47 | 142 | 0.0 | 0.0 | 0.00 | 0.00 | 0.00 | 62 | 976.0 |
| 20260508013039 | 47 | 246 | 0.0 | 0.0 | 0.00 | 0.00 | 0.00 | 66 | 976.0 |
| 20260508012539 | 47 | 55 | 0.0 | 0.0 | 0.00 | 0.00 | 0.00 | 68 | 976.0 |
| 20260508011539 | 48 | 230 | 0.0 | 0.0 | 0.00 | 0.00 | 0.00 | 63 | 975.6 |
| 20260508011037 | 48 | 242 | 0.0 | 0.0 | 0.00 | 0.00 | 0.00 | 60 | 975.6 |
| 20260508010537 | 48 | 117 | 0.0 | 0.0 | 0.00 | 0.00 | 0.00 | 64 | 975.6 |
| 20260508010037 | 48 | 117 | 0.0 | 0.0 | 0.00 | 0.00 | 0.00 | 57 | 975.6 |
| 20260508005536 | 49 | 117 | 0.0 | 0.0 | 0.00 | 0.00 | 0.00 | 60 | 975.6 |
| 20260508005030 | 50 | 44 | 0.0 | 1.7 | 0.00 | 0.00 | 0.00 | 53 | 975.6 |
| 20260508004531 | 50 | 52 | 0.0 | 0.9 | 0.00 | 0.00 | 0.00 | 49 | 975.6 |
| 20260508004030 | 51 | 217 | 0.0 | 0.0 | 0.00 | 0.00 | 0.00 | 48 | 975.6 |
| 20260508003033 | 51 | 37 | 0.0 | 1.7 | 0.00 | 0.00 | 0.00 | 47 | 975.6 |
| 20260508002529 | 52 | 319 | 0.9 | 2.6 | 0.00 | 0.00 | 0.00 | 46 | 975.6 |
| 20260508001534 | 52 | 17 | 0.0 | 4.3 | 0.00 | 0.00 | 0.00 | 45 | 975.3 |
| 20260508001033 | 53 | 318 | 3.5 | 4.3 | 0.00 | 0.00 | 0.00 | 44 | 975.3 |
| 20260508000533 | 53 | 313 | 1.7 | 4.3 | 0.00 | 0.00 | 0.00 | 43 | 975.3 |
| 20260508000033 | 53 | 323 | 2.6 | 4.3 | 0.00 | 0.00 | 0.00 | 43 | 975.3 |
| 20260507235533 | 53 | 293 | 0.0 | 5.2 | 0.00 | 0.00 | 0.00 | 42 | 975.3 |
| 20260507235034 | 54 | 324 | 1.7 | 5.2 | 0.00 | 0.00 | 0.00 | 41 | 975.0 |
| 20260507234533 | 54 | 256 | 3.5 | 7.8 | 0.00 | 0.00 | 0.00 | 41 | 975.3 |
| 20260507234033 | 54 | 299 | 5.2 | 7.8 | 0.00 | 0.00 | 0.00 | 41 | 975.0 |
| 20260507233533 | 54 | 309 | 3.5 | 7.0 | 0.00 | 0.00 | 0.00 | 40 | 975.0 |
| 20260507232533 | 55 | 260 | 0.0 | 4.3 | 0.00 | 0.00 | 0.00 | 41 | 975.3 |
| 20260507231531 | 55 | 322 | 3.5 | 8.7 | 0.00 | 0.00 | 0.00 | 42 | 975.0 |
| 20260507231031 | 55 | 343 | 2.6 | 8.7 | 0.00 | 0.00 | 0.00 | 40 | 975.0 |
| 20260507230532 | 55 | 292 | 5.2 | 8.7 | 0.00 | 0.00 | 0.00 | 39 | 975.0 |
| 20260507230031 | 56 | 277 | 4.3 | 7.8 | 0.00 | 0.00 | 0.00 | 39 | 975.3 |
| 20260507225034 | 56 | 335 | 0.0 | 7.0 | 0.00 | 0.00 | 0.00 | 38 | 975.0 |
| 20260507224530 | 56 | 347 | 0.9 | 6.1 | 0.00 | 0.00 | 0.00 | 37 | 975.0 |
| 20260507224030 | 56 | 305 | 3.5 | 5.2 | 0.00 | 0.00 | 0.00 | 39 | 975.0 |
| 20260507223530 | 56 | 301 | 1.7 | 5.2 | 0.00 | 0.00 | 0.00 | 41 | 975.3 |
| 20260507223029 | 55 | 312 | 1.7 | 7.0 | 0.00 | 0.00 | 0.00 | 42 | 975.3 |
| 20260507222530 | 55 | 337 | 1.7 | 7.0 | 0.00 | 0.00 | 0.00 | 42 | 975.3 |
| 20260507222029 | 55 | 325 | 2.6 | 8.7 | 0.00 | 0.00 | 0.00 | 41 | 975.3 |
| 20260507221029 | 56 | 314 | 5.2 | 7.8 | 0.00 | 0.00 | 0.00 | 39 | 975.3 |
| 20260507220528 | 55 | 334 | 4.3 | 7.8 | 0.00 | 0.00 | 0.00 | 42 | 975.0 |
| 20260507220028 | 54 | 294 | 2.6 | 10.4 | 0.00 | 0.00 | 0.00 | 44 | 975.0 |
| 20260507215028 | 56 | 281 | 8.7 | 10.4 | 0.00 | 0.00 | 0.00 | 40 | 975.0 |
| 20260507214027 | 55 | 289 | 2.6 | 11.3 | 0.00 | 0.00 | 0.00 | 42 | 974.6 |
| 20260507213527 | 56 | 339 | 4.3 | 11.3 | 0.00 | 0.00 | 0.00 | 40 | 975.0 |
| 20260507213026 | 56 | 332 | 5.2 | 10.4 | 0.00 | 0.00 | 0.00 | 42 | 975.0 |
| 20260507212526 | 55 | 313 | 1.7 | 7.8 | 0.00 | 0.00 | 0.00 | 43 | 974.6 |
| 20260507212026 | 54 | 356 | 3.5 | 9.6 | 0.00 | 0.00 | 0.00 | 44 | 974.6 |
| 20260507211525 | 56 | 322 | 5.2 | 9.6 | 0.00 | 0.00 | 0.00 | 42 | 974.6 |
| 20260507211025 | 55 | 307 | 2.6 | 7.0 | 0.00 | 0.00 | 0.00 | 43 | 974.6 |
| 20260507210525 | 55 | 354 | 3.5 | 7.0 | 0.00 | 0.00 | 0.00 | 43 | 974.3 |
| 20260507210025 | 56 | 322 | 2.6 | 9.6 | 0.00 | 0.00 | 0.00 | 44 | 974.3 |
| 20260507205524 | 55 | 323 | 1.7 | 10.4 | 0.00 | 0.00 | 0.00 | 43 | 974.3 |
| 20260507205028 | 56 | 321 | 4.3 | 10.4 | 0.00 | 0.00 | 0.00 | 42 | 974.3 |
| 20260507204524 | 56 | 286 | 5.2 | 7.8 | 0.00 | 0.00 | 0.00 | 42 | 974.6 |
| 20260507204023 | 57 | 6 | 3.5 | 11.3 | 0.00 | 0.00 | 0.00 | 43 | 974.3 |
| 20260507202523 | 57 | 328 | 4.3 | 7.8 | 0.00 | 0.00 | 0.00 | 42 | 973.9 |
| 20260507202023 | 56 | 15 | 5.2 | 9.6 | 0.00 | 0.00 | 0.00 | 41 | 974.3 |
| 20260507201522 | 57 | 14 | 1.7 | 9.6 | 0.00 | 0.00 | 0.00 | 41 | 974.3 |
| 20260507201022 | 56 | 282 | 1.7 | 11.3 | 0.00 | 0.00 | 0.00 | 42 | 973.9 |
| 20260507200022 | 57 | 327 | 2.6 | 8.7 | 0.00 | 0.00 | 0.00 | 41 | 974.3 |
| 20260507195521 | 57 | 296 | 2.6 | 10.4 | 0.00 | 0.00 | 0.00 | 40 | 974.6 |
| 20260507194521 | 58 | 307 | 5.2 | 7.8 | 0.00 | 0.00 | 0.00 | 38 | 974.3 |
| 20260507194021 | 57 | 289 | 6.1 | 7.8 | 0.00 | 0.00 | 0.00 | 41 | 974.6 |
| 20260507193521 | 56 | 328 | 2.6 | 9.6 | 0.00 | 0.00 | 0.00 | 41 | 974.6 |
| 20260507193020 | 56 | 281 | 7.8 | 9.6 | 0.00 | 0.00 | 0.00 | 41 | 974.6 |
| 20260507192020 | 56 | 316 | 2.6 | 7.8 | 0.00 | 0.00 | 0.00 | 40 | 974.6 |
| 20260507191520 | 57 | 359 | 2.6 | 7.8 | 0.00 | 0.00 | 0.00 | 42 | 974.6 |
| 20260507190518 | 57 | 283 | 7.0 | 9.6 | 0.00 | 0.00 | 0.00 | 42 | 974.6 |
| 20260507190018 | 55 | 293 | 4.3 | 9.6 | 0.00 | 0.00 | 0.00 | 42 | 975.0 |
| 20260507185518 | 55 | 287 | 4.3 | 7.8 | 0.00 | 0.00 | 0.00 | 42 | 974.6 |
| 20260507185017 | 56 | 298 | 3.5 | 11.3 | 0.00 | 0.00 | 0.00 | 42 | 975.0 |
| 20260507183517 | 56 | 280 | 2.6 | 5.2 | 0.00 | 0.00 | 0.00 | 42 | 974.6 |
| 20260507183019 | 56 | 310 | 2.6 | 9.6 | 0.00 | 0.00 | 0.00 | 42 | 974.6 |
| 20260507182516 | 55 | 326 | 1.7 | 9.6 | 0.00 | 0.00 | 0.00 | 42 | 975.0 |
| 20260507182016 | 56 | 292 | 3.5 | 10.4 | 0.00 | 0.00 | 0.00 | 42 | 974.6 |
| 20260507181516 | 57 | 289 | 3.5 | 11.3 | 0.00 | 0.00 | 0.00 | 41 | 975.0 |
| 20260507180516 | 56 | 341 | 2.6 | 8.7 | 0.00 | 0.00 | 0.00 | 40 | 975.0 |
| 20260507180015 | 57 | 302 | 3.5 | 8.7 | 0.00 | 0.00 | 0.00 | 40 | 975.0 |
| 20260507175515 | 56 | 317 | 3.5 | 7.0 | 0.00 | 0.00 | 0.00 | 41 | 975.0 |
| 20260507175015 | 56 | 335 | 1.7 | 9.6 | 0.00 | 0.00 | 0.00 | 42 | 975.0 |
| 20260507174514 | 56 | 301 | 4.3 | 9.6 | 0.00 | 0.00 | 0.00 | 39 | 975.0 |
| 20260507173514 | 56 | 294 | 6.1 | 7.8 | 0.00 | 0.00 | 0.00 | 40 | 975.0 |
| 20260507172013 | 56 | 235 | 1.7 | 5.2 | 0.00 | 0.00 | 0.00 | 42 | 975.0 |
| 20260507171513 | 56 | 336 | 4.3 | 7.8 | 0.00 | 0.00 | 0.00 | 39 | 975.3 |
| 20260507171012 | 56 | 280 | 6.1 | 7.8 | 0.00 | 0.00 | 0.00 | 40 | 975.0 |
| 20260507170513 | 55 | 295 | 2.6 | 9.6 | 0.00 | 0.00 | 0.00 | 39 | 975.0 |
| 20260507170012 | 55 | 291 | 6.1 | 9.6 | 0.00 | 0.00 | 0.00 | 38 | 975.6 |
| 20260507165011 | 56 | 280 | 3.5 | 8.7 | 0.00 | 0.00 | 0.00 | 38 | 975.3 |
| 20260507164511 | 55 | 309 | 5.2 | 8.7 | 0.00 | 0.00 | 0.00 | 40 | 975.3 |
| 20260507164011 | 55 | 355 | 1.7 | 10.4 | 0.00 | 0.00 | 0.00 | 40 | 975.3 |
| 20260507163510 | 55 | 317 | 6.1 | 10.4 | 0.00 | 0.00 | 0.00 | 41 | 975.3 |
| 20260507163014 | 55 | 302 | 6.1 | 9.6 | 0.00 | 0.00 | 0.00 | 40 | 975.3 |
| 20260507162509 | 55 | 299 | 2.6 | 9.6 | 0.00 | 0.00 | 0.00 | 41 | 975.3 |
| 20260507162009 | 55 | 291 | 2.6 | 9.6 | 0.00 | 0.00 | 0.00 | 42 | 975.3 |
| 20260507161509 | 55 | 244 | 1.7 | 8.7 | 0.00 | 0.00 | 0.00 | 40 | 975.3 |
| 20260507161008 | 54 | 250 | 2.6 | 8.7 | 0.00 | 0.00 | 0.00 | 40 | 975.3 |
| 20260507160508 | 55 | 292 | 4.3 | 7.8 | 0.00 | 0.00 | 0.00 | 41 | 975.3 |
| 20260507160008 | 54 | 274 | 0.9 | 9.6 | 0.00 | 0.00 | 0.00 | 41 | 975.3 |
| 20260507155507 | 54 | 294 | 5.2 | 9.6 | 0.00 | 0.00 | 0.00 | 42 | 975.3 |
| 20260507155007 | 54 | 267 | 4.3 | 9.6 | 0.00 | 0.00 | 0.00 | 43 | 975.3 |
| 20260507154506 | 54 | 309 | 1.7 | 7.0 | 0.00 | 0.00 | 0.00 | 42 | 975.3 |
| 20260507153506 | 55 | 277 | 0.9 | 7.8 | 0.00 | 0.00 | 0.00 | 42 | 975.3 |
| 20260507153006 | 53 | 303 | 0.9 | 6.1 | 0.00 | 0.00 | 0.00 | 42 | 975.3 |
| 20260507152506 | 54 | 225 | 2.6 | 6.1 | 0.00 | 0.00 | 0.00 | 40 | 975.3 |
| 20260507152005 | 54 | 318 | 1.7 | 5.2 | 0.00 | 0.00 | 0.00 | 45 | 975.6 |
| 20260507151006 | 53 | 284 | 2.6 | 9.6 | 0.00 | 0.00 | 0.00 | 45 | 975.3 |
| 20260507150506 | 53 | 212 | 3.5 | 9.6 | 0.00 | 0.00 | 0.00 | 44 | 975.6 |
| 20260507150006 | 53 | 243 | 1.7 | 7.0 | 0.00 | 0.00 | 0.00 | 46 | 975.6 |
| 20260507145505 | 53 | 173 | 0.9 | 7.0 | 0.00 | 0.00 | 0.00 | 46 | 975.6 |
| 20260507145004 | 52 | 305 | 1.7 | 9.6 | 0.00 | 0.00 | 0.00 | 51 | 975.6 |
| 20260507144505 | 53 | 297 | 2.6 | 9.6 | 0.00 | 0.00 | 0.00 | 48 | 975.3 |
| 20260507143504 | 53 | 226 | 2.6 | 6.1 | 0.00 | 0.00 | 0.00 | 53 | 975.6 |
| 20260507143004 | 52 | 275 | 0.0 | 7.0 | 0.00 | 0.00 | 0.00 | 51 | 975.3 |
| 20260507142503 | 52 | 288 | 3.5 | 10.4 | 0.00 | 0.00 | 0.00 | 52 | 975.6 |
| 20260507142007 | 52 | 277 | 4.3 | 10.4 | 0.00 | 0.00 | 0.00 | 54 | 975.6 |
| 20260507141503 | 52 | 326 | 0.0 | 5.2 | 0.00 | 0.00 | 0.00 | 53 | 975.6 |
| 20260507140503 | 51 | 283 | 4.3 | 6.1 | 0.00 | 0.00 | 0.00 | 56 | 976.0 |
| 20260507140002 | 51 | 281 | 4.3 | 7.0 | 0.00 | 0.00 | 0.00 | 55 | 975.6 |
| 20260507135502 | 51 | 262 | 1.7 | 5.2 | 0.00 | 0.00 | 0.00 | 57 | 976.0 |
| 20260507135002 | 50 | 283 | 1.7 | 5.2 | 0.00 | 0.00 | 0.00 | 58 | 976.0 |
| 20260507134502 | 50 | 356 | 1.7 | 7.0 | 0.00 | 0.00 | 0.00 | 59 | 976.0 |
| 20260507133501 | 49 | 342 | 1.7 | 7.0 | 0.00 | 0.00 | 0.00 | 61 | 976.0 |
| 20260507133001 | 50 | 288 | 3.5 | 6.1 | 0.00 | 0.00 | 0.00 | 59 | 976.0 |
| 20260507132000 | 49 | 254 | 1.7 | 4.3 | 0.00 | 0.00 | 0.00 | 63 | 976.3 |
| 20260507131459 | 49 | 336 | 1.7 | 4.3 | 0.00 | 0.00 | 0.00 | 63 | 976.0 |
| 20260507130500 | 48 | 229 | 0.0 | 5.2 | 0.00 | 0.00 | 0.00 | 66 | 976.0 |
| 20260507124958 | 48 | 311 | 0.9 | 2.6 | 0.00 | 0.00 | 0.00 | 72 | 976.0 |
| 20260507124458 | 47 | 144 | 0.0 | 3.5 | 0.00 | 0.00 | 0.00 | 73 | 976.3 |
| 20260507123958 | 48 | 216 | 3.5 | 3.5 | 0.00 | 0.00 | 0.00 | 73 | 976.0 |
| 20260507123457 | 47 | 296 | 1.7 | 2.6 | 0.00 | 0.00 | 0.00 | 77 | 976.0 |
| 20260507122957 | 46 | 16 | 0.0 | 2.6 | 0.00 | 0.00 | 0.00 | 77 | 976.0 |
| 20260507122457 | 46 | 337 | 0.9 | 2.6 | 0.00 | 0.00 | 0.00 | 79 | 976.0 |
| 20260507120957 | 44 | 229 | 0.0 | 2.6 | 0.00 | 0.00 | 0.00 | 84 | 976.0 |
| 20260507120456 | 44 | 203 | 1.7 | 1.7 | 0.00 | 0.00 | 0.00 | 86 | 976.0 |
| 20260507115956 | 43 | 127 | 0.9 | 1.7 | 0.00 | 0.00 | 0.00 | 90 | 976.0 |
| 20260507115455 | 42 | 193 | 0.0 | 1.7 | 0.00 | 0.00 | 0.00 | 93 | 976.3 |
| 20260507114955 | 42 | 0 | 0.9 | 0.9 | 0.00 | 0.00 | 0.00 | 94 | 976.0 |
| 20260507114455 | 41 | 256 | 0.0 | 0.9 | 0.00 | 0.00 | 0.00 | 94 | 976.0 |
| 20260507113454 | 40 | 147 | 0.0 | 0.0 | 0.00 | 0.00 | 0.00 | 94 | 976.0 |
| 20260507112431 | 39 | 142 | 0.0 | 0.0 | 0.00 | 0.00 | 0.00 | 94 | 976.0 |
| 20260507111930 | 39 | 142 | 0.0 | 0.0 | 0.00 | 0.00 | 0.00 | 94 | 976.0 |
| 20260507111431 | 38 | 50 | 0.0 | 0.0 | 0.00 | 0.00 | 0.00 | 94 | 975.6 |
| 20260507110930 | 38 | 66 | 0.0 | 0.0 | 0.00 | 0.00 | 0.00 | 94 | 976.0 |
| 20260507110430 | 38 | 110 | 0.0 | 0.0 | 0.00 | 0.00 | 0.00 | 93 | 975.6 |
| 20260507104430 | 39 | 128 | 0.0 | 0.0 | 0.00 | 0.00 | 0.00 | 95 | 975.6 |
| 20260507103430 | 39 | 37 | 0.0 | 0.0 | 0.00 | 0.00 | 0.00 | 98 | 975.6 |
| 20260507102929 | 39 | 37 | 0.0 | 0.0 | 0.00 | 0.00 | 0.00 | 88 | 975.6 |
| 20260507102431 | 38 | 37 | 0.0 | 0.0 | 0.00 | 0.00 | 0.00 | 89 | 975.6 |
| 20260507101930 | 38 | 37 | 0.0 | 0.0 | 0.00 | 0.00 | 0.00 | 89 | 975.6 |
| 20260507100419 | 38 | 293 | 0.0 | 0.0 | 0.00 | 0.01 | 0.00 | 95 | 975.6 |
| 20260507095915 | 38 | 293 | 0.0 | 0.0 | 0.00 | 0.01 | 0.00 | 95 | 975.6 |
| 20260507095415 | 38 | 293 | 0.0 | 0.0 | 0.00 | 0.01 | 0.00 | 95 | 975.6 |
| 20260507094414 | 39 | 44 | 0.0 | 0.0 | 0.00 | 0.03 | 0.00 | 94 | 975.3 |
| 20260507093914 | 39 | 44 | 0.0 | 0.0 | 0.00 | 0.04 | 0.00 | 94 | 975.3 |
| 20260507093414 | 39 | 44 | 0.0 | 0.0 | 0.00 | 0.04 | 0.00 | 94 | 975.6 |
| 20260507092914 | 39 | 44 | 0.0 | 0.0 | 0.00 | 0.05 | 0.00 | 94 | 975.6 |
| 20260507092414 | 38 | 44 | 0.0 | 0.0 | 0.00 | 0.05 | 0.00 | 93 | 975.6 |
| 20260507091914 | 38 | 44 | 0.0 | 0.0 | 0.00 | 0.06 | 0.00 | 93 | 975.6 |
| 20260507091413 | 38 | 44 | 0.0 | 0.0 | 0.00 | 0.07 | 0.00 | 93 | 975.6 |
| 20260507090412 | 38 | 142 | 0.0 | 0.0 | 0.00 | 0.09 | 0.00 | 93 | 975.6 |
| 20260507085912 | 38 | 66 | 0.0 | 0.0 | 0.00 | 0.09 | 0.00 | 92 | 975.6 |
| 20260507085412 | 38 | 44 | 0.0 | 0.0 | 0.00 | 0.09 | 0.00 | 92 | 975.6 |
| 20260507084912 | 38 | 44 | 0.0 | 0.0 | 0.00 | 0.09 | 0.00 | 92 | 975.6 |
| 20260507084411 | 39 | 229 | 0.0 | 0.0 | 0.00 | 0.10 | 0.00 | 92 | 975.6 |
| 20260507083911 | 39 | 186 | 0.0 | 0.0 | 0.00 | 0.10 | 0.00 | 92 | 975.6 |
| 20260507083411 | 39 | 186 | 0.0 | 0.0 | 0.00 | 0.10 | 0.00 | 92 | 976.0 |
| 20260507082911 | 39 | 50 | 0.0 | 0.0 | 0.00 | 0.11 | 0.00 | 91 | 975.6 |
| 20260507082410 | 39 | 315 | 0.0 | 0.0 | 0.00 | 0.11 | 0.00 | 91 | 975.6 |
| 20260507081910 | 39 | 249 | 0.0 | 0.0 | 0.00 | 0.11 | 0.00 | 91 | 975.6 |
| 20260507081410 | 39 | 25 | 0.0 | 0.0 | 0.00 | 0.12 | 0.00 | 91 | 975.6 |
| 20260507080910 | 40 | 32 | 0.0 | 0.0 | 0.00 | 0.13 | 0.00 | 91 | 975.6 |
| 20260507080410 | 40 | 32 | 0.0 | 0.0 | 0.00 | 0.14 | 0.00 | 90 | 975.6 |
| 20260507075910 | 40 | 32 | 0.0 | 0.0 | 0.00 | 0.16 | 0.00 | 90 | 975.6 |
| 20260507075412 | 40 | 32 | 0.0 | 0.0 | 0.00 | 0.17 | 0.00 | 90 | 975.6 |